Back to catalog

FENGYUN 1C DEB

AlivePO
NORAD 31887·DEBRIS·🇨🇳 China

Launched May 10, 1999 from Taiyuan Satellite Launch Center

Loading…

Next Passes (next 24 hours)

TLE

FreshSource: Space-Track

Epoch: Sep 13, 2026, 05:32 UTC

1 31887U 99025CKN 26256.23121995  .00005085  00000-0  10433-2 0  9996
2 31887  99.5231 353.1589 0020214 256.5279 103.3665 14.61098387  6071

Track FENGYUN 1C DEB in real time with AllMySat

Download on the App Store